Location: Mountain_View
(35.6670°N, 81.4000°W)
Time: 13:23:37
(UTC-04:00)

Daily predictions for brighter satellites

Satellite Brightness Start Highest point End
(mag) Time Altitude Azimuth Time Altitude Azimuth Time Altitude Azimuth
Sakura Rocket 4.3 20:25:06 10° SW 20:29:40 29° S 20:33:18 10° ESE
Cosmos 2221 3.2 20:28:02 10° SSW 20:32:13 58° W 20:36:26 10° N
NOSS 2-1 (C) 3.7 20:31:34 10° SW 20:35:08 62° NW 20:38:55 10° NNE
NOSS 2-1 (D) 3.8 20:32:34 10° SW 20:36:08 58° NW 20:39:54 10° NNE
Cosmos 1340 2.6 20:33:43 10° S 20:37:28 65° E 20:41:13 10° NNE
Cosmos 2228 Rocket 4.4 20:37:55 10° SE 20:41:02 19° E 20:44:11 10° NE
HJ-1C 3.4 20:40:18 10° S 20:43:37 85° W 20:47:00 10° NNW
SL-24 R/B - RUBIN 2 3.8 20:39:27 10° NNW 20:43:42 52° ENE 20:48:00 10° SE
Thor Agena Rocket 3.7 20:38:33 10° NNE 20:43:43 56° ESE 20:48:53 10° S
In-Cosmos 22 Rocket 4.1 20:38:37 10° N 20:44:05 78° E 20:49:24 10° SSE
ATLAS 2AS CENTAUR R/B 3.6 20:38:49 10° NNW 20:46:05 38° NE 20:52:15 12° ESE
ASTRO E2 4.3 20:46:20 10° SSW 20:49:08 18° SSE 20:51:08 13° ESE
OAO 2 Rocket 3.4 20:45:03 10° W 20:50:17 72° S 20:54:42 14° ESE
Cosmos 1805 Rocket 3.6 20:48:36 10° N 20:52:58 84° W 20:57:17 10° S
Spot 2 Rocket 4.4 20:49:02 11° SE 20:53:14 30° ENE 20:57:37 10° N
Cosmos 1825 4.1 20:52:31 10° NE 20:54:13 13° ENE 20:54:53 12° E
Cosmos 1328 Rocket 3.9 20:50:49 10° SSE 20:54:58 42° E 20:59:09 10° NNE
Cosmos 2154 Rocket 4.0 20:50:07 10° S 20:56:22 81° E 21:02:37 10° N
H-2A R/B 2.9 20:53:37 10° W 20:56:31 16° SW 20:58:11 10° S
ATLAS CENTAUR R/B 0.9 20:53:27 10° SSW 20:57:04 77° ESE 21:00:49 10° NNE
SL-8 R/B 3.6 20:52:35 10° SW 20:57:21 80° SE 21:02:09 10° NE
SL-16 R/B 3.6 21:01:32 15° ESE 21:02:10 16° E 21:05:25 10° ENE
Meteor 2-15 4.4 20:56:49 10° N 21:02:58 86° E 21:09:04 10° S
Timation 1 Rocket 4.3 20:59:05 10° NNW 21:05:04 74° ENE 21:10:41 12° SSE
Resurs 01 Rocket 1.9 21:02:01 12° SSE 21:05:57 49° ENE 21:10:15 10° N
SJ-6B 3.7 21:05:49 10° S 21:09:46 52° W 21:13:40 10° NNW
Cosmos 1470 Rocket 4.2 21:07:01 10° NNE 21:11:04 35° ENE 21:13:19 21° SE
Haruka 4.1 21:05:07 10° W 21:13:21 37° SSW 21:15:51 18° SSE
Meteor 2-3 Rocket 3.7 21:09:29 10° N 21:15:03 63° E 21:20:11 12° SSE
Cosmos 1939 Rocket 2.7 21:13:06 13° SSE 21:16:28 79° ENE 21:20:22 10° N
Cosmos 2341 Rocket 4.0 21:13:21 10° S 21:19:43 83° E 21:26:04 10° N
Cosmos 1869 4.2 21:19:47 27° ESE 21:20:26 29° E 21:23:56 10° NNE
NOSS 0 Rocket 3.9 21:15:11 10° SSW 21:21:21 83° ESE 21:27:33 10° NNE
Cosmos 962 Rocket 4.4 21:15:27 10° S 21:21:33 89° E 21:27:44 10° N
Meteor 2-10 Rocket 4.5 21:20:50 22° SE 21:23:20 31° E 21:28:20 10° NNE
Cosmos 2218 Rocket 4.3 21:18:33 10° SSE 21:24:34 47° E 21:30:38 10° NNE
Cosmos 1980 3.6 21:22:24 10° SSW 21:28:05 83° ESE 21:33:47 10° NNE
ERS-1 Rocket 4.5 21:30:08 18° ENE 21:30:44 19° ENE 21:34:08 10° NNE
USA 267 3.9 21:25:45 10° ENE 21:31:14 28° SE 21:36:40 10° S
Cosmos 2366 rocket 4.1 21:31:03 15° SSE 21:36:03 52° E 21:42:07 10° NNE
H-2A R/B 3.2 21:36:33 23° ENE 21:37:06 24° ENE 21:41:02 10° NNE
Cosmos 1408 2.7 21:34:17 10° N 21:37:52 51° E 21:38:11 50° ESE
ERS-2 4.0 21:35:26 10° SSW 21:38:40 29° W 21:41:55 10° NW
Cosmos 220 Rocket 3.9 21:34:33 10° NNW 21:38:53 88° W 21:40:43 34° SSE
Cosmos 2333 Rocket 3.2 21:33:33 10° SW 21:39:00 48° WNW 21:44:28 10° N
Resurs 1-3 4.0 21:35:47 15° S 21:39:17 63° W 21:43:39 10° NNW
Cosmos 1933 Rocket 3.5 21:35:22 10° N 21:39:44 63° E 21:41:04 41° SE
Cosmos 1371 Rocket 4.0 21:34:57 10° S 21:40:08 62° ESE 21:45:26 10° NNE
Cosmos 1151 Rocket 2.9 21:35:54 10° S 21:40:09 85° W 21:44:26 10° N
Cosmos 1455 3.6 21:37:03 10° SSW 21:40:38 39° W 21:44:17 10° N
USA 186 3.5 21:40:40 16° SW 21:41:28 18° W 21:43:09 10° NW
SL-8 Rocket 3.9 21:38:48 10° S 21:45:07 86° E 21:51:25 10° N
Cosmos 1844 Rocket 3.9 21:40:11 10° NW 21:45:24 39° WSW 21:50:34 10° S
YAOGAN 6 4.4 21:48:32 11° SSW 21:51:26 28° W 21:54:37 10° NW
MetOp-A 4.5 21:51:21 40° ESE 21:52:25 45° ENE 21:57:29 10° N
Cosmos 2219 Rocket 4.1 21:48:43 10° WSW 21:53:40 31° WNW 21:58:38 10° N
Cosmos 2237 Rocket 2.6 21:49:57 10° SSW 21:55:29 62° WNW 22:01:04 10° NNE
Cosmos 2056 Rocket 3.4 21:57:10 16° S 22:01:36 78° ESE 22:07:02 10° NNE
Genesis I 3.5 22:00:45 10° NW 22:04:46 61° WSW 22:05:02 59° SW
Terra 4.2 22:09:24 11° NE 22:09:24 11° NE 22:09:45 10° NE
Cosmos 2278 Rocket 2.2 22:02:31 10° NNW 22:08:12 82° WSW 22:09:51 48° S
Cosmos 2098 Rocket 3.1 22:07:14 43° SSW 22:08:46 81° W 22:12:48 10° N
Cosmos 1624 Rocket 4.2 22:13:55 12° SSW 22:18:39 68° WNW 22:23:50 10° NNE
Cosmos 1190 Rocket 4.0 22:19:57 10° NNW 22:24:56 65° NE 22:24:56 65° NE
ATLAS 2A CENTAUR R/B 3.9 22:09:06 10° WSW 22:26:05 45° S 22:27:50 42° SSE
SPOT 5 4.1 22:28:34 29° NNE 22:28:34 29° NNE 22:31:10 10° N
Cosmos 1825 3.7 22:26:27 10° NNW 22:29:46 32° W 22:29:46 32° W
ATLAS 2AS CENTAUR R/B 3.6 22:29:55 10° NW 22:37:09 45° WSW 22:39:44 33° SSW
Resurs 01 Rocket 4.4 22:40:47 10° WSW 22:42:39 12° W 22:44:31 10° WNW
GEOS 3 Rocket 3.7 22:37:21 10° NNE 22:42:41 73° NW 22:43:44 56° WSW
SL-16 R/B 2.6 22:43:11 32° SW 22:45:41 59° WNW 22:51:17 10° NNE
ARGOS 3.6 22:48:16 52° WSW 22:48:32 52° W 22:53:45 10° NNW
Cosmos 2344 3.4 22:41:58 10° SSW 22:49:39 85° ESE 22:57:44 10° NNE
Cosmos 1943 Rocket 4.4 22:53:09 10° NNE 22:54:37 12° NE 22:54:37 12° NE
Cosmos 1821 Rocket 4.1 22:57:37 69° NNE 22:57:37 69° NNE 23:03:09 10° N
NOSS 3-4 (A) 3.7 23:00:39 10° NNW 23:07:52 86° WSW 23:07:53 86° SW
NOSS 3-4 (C) 3.7 23:00:45 10° NNW 23:07:58 87° WSW 23:07:59 87° SW
SPOT 1/Viking Rocket 4.4 23:09:38 46° NNW 23:09:38 46° NNW 23:13:15 10° NNW
ERS-1 Rocket 4.1 23:10:08 39° WNW 23:10:08 39° WNW 23:13:56 10° NNW
USA 267 3.4 23:07:59 10° NE 23:14:28 69° NW 23:20:56 10° WSW
H-2A R/B 3.4 23:17:10 32° WNW 23:17:10 32° WNW 23:20:51 10° NNW
Cosmos 2369 Rocket 3.9 23:22:21 10° N 23:25:18 25° NNE 23:25:18 25° NNE
CZ-4C R/B 3.9 23:44:41 26° N 23:44:41 26° N 23:47:23 10° NNE
Terra 4.1 23:48:17 22° NNW 23:48:17 22° NNW 23:49:57 10° NNW
USA 234 4.4 23:45:38 33° NE 23:45:44 33° NNE 23:51:26 10° NNW
